Location: New Canada
(47.1017°N, 68.5042°W)
Time: 17:49:05
(UTC+00:00)

RS-44 - Pass Details

Date: 20 April 2024
Orbit: 1174 x 1511 km, 82.5° (Epoch: 20 May)

Event Time Altitude Azimuth Distance (km) Brightness Sun altitude
Rises 00:36:58 0° 187° (S) 4,639 ? -11.3°
Reaches altitude 10° 00:39:54 10° 188° (S) 3,655 ? -11.7°
Maximum altitude 00:48:47 87° 278° (W) 1,478 ? -13.0°
Drops below altitude 10° 00:57:18 10° 9° (N) 3,505 ? -14.2°
Sets 01:00:04 0° 10° (N) 4,442 ? -14.6°
